Regional Weather Roundup
Issued by NWS Tiyan, Guam

Home | Current Version | Previous Version | Text Only | Print | Product List | Glossary On
Versions: 1 2 3 4 5 6 7 8 9 10 11 12 13 14 15 16 17 18 19 20 21 22 23 24 25 26 27
000
ASGM40 PGUM 260712
RWRGUM
WEATHER ROUNDUP FOR THE MARIANAS
NATIONAL WEATHER SERVICE TIYAN GU
500 PM CHST FRI MAY 26 2017

GUZ001>004-260800-
MARIANA ISLANDS-

CITY           SKY/WX    TMP DP  RH WIND       PRES   REMARKS
GUAM AIRPORT   MOSUNNY   88  75  66 E16       29.84S HX  97
ANDERSEN AFB   PTSUNNY   84  75  74 E14       29.86R HX  92
ROTA AIRPORT   MOSUNNY   82  77  83 E12       29.85S HX  91
TINIAN AP      MOSUNNY   84  75  74 E13       29.83S HX  92
SAIPAN AP      MOSUNNY   88  75  66 E15       29.84S HX  97

$$





USA.gov is the U.S. government's official web portal to all federal, state and local government web resources and services.